Climatologie pour Saint-Brevin les Pins
Jour • Résumé pour mars 23, 2017 Système :  Métrique    Anglais   Mixte
« - 1 jour
+ 1 jour »
Jour Semaine Mois Année Personnalisé
  Maximum : Minimum : Moyenne :
Température sous abri : -17.8 °C -15.7 °C -14.4 °C
Point de rosée : -17.8 °C -15.9 °C -14.8 °C
Humidité : Humidity % 82 % 95 %
Vitesse du vent : 0 km/h 0 km/h 5.6 km/h
Rafale : 0 km/h - -
Direction :- - East
Pression : 0 hPa 34073.3 hPa -
Précipitations : 109.22 mm    
Historical Graphs
 
 
Tableau de données pour mars 23, 2017
Heure Tempé Pt rosée Pression Vent Vitesse Rafale Humidité Taux pluie (/hr) Soleil
-17.8 °C -17.8 °C 0 hPa Calm     Humidity % 0 mm SolarRadiationWatts/m^2 W/m2 Conditions
00:00 -15.4 °C -15.6 °C 34097 hPa SE 7.7 km/h 10.3 km/h 97 % 0 mm 0 W/m2
00:10 -15.4 °C -15.7 °C 34097 hPa SE 2.6 km/h 12.9 km/h 97 % 0 mm 0 W/m2
00:15 -15.4 °C -15.7 °C 34097 hPa SE 5.1 km/h 15.6 km/h 97 % 0 mm 0 W/m2
00:20 -15.5 °C -15.7 °C 34097 hPa SE 7.7 km/h 15.6 km/h 97 % 0 mm 0 W/m2
00:25 -15.5 °C -15.7 °C 34097 hPa SSE 5.1 km/h 12.9 km/h 97 % 0 mm 0 W/m2
00:30 -15.5 °C -15.8 °C 34097 hPa Calm   12.9 km/h 97 % 0 mm 0 W/m2
00:35 -15.5 °C -15.8 °C 34097 hPa SE 7.7 km/h 10.3 km/h 97 % 0 mm 0 W/m2
00:40 -15.5 °C -15.8 °C 34097 hPa SE 5.1 km/h 10.3 km/h 97 % 0 mm 0 W/m2
00:45 -15.4 °C -15.7 °C 34097 hPa Calm   10.3 km/h 97 % 0 mm 0 W/m2
00:50 -15.4 °C -15.7 °C 34097 hPa SE 2.6 km/h 7.7 km/h 97 % 0 mm 0 W/m2
00:55 -15.4 °C -15.7 °C 34097 hPa Calm   10.3 km/h 97 % 0 mm 0 W/m2
01:00 -15.4 °C -15.7 °C 34097 hPa Calm   10.3 km/h 97 % 0 mm 0 W/m2
01:05 -15.4 °C -15.7 °C 34086.9 hPa ESE 2.6 km/h 7.7 km/h 97 % 0 mm 0 W/m2
01:10 -15.5 °C -15.7 °C 34086.9 hPa ESE 2.6 km/h 7.7 km/h 97 % 0 mm 0 W/m2
01:15 -15.5 °C -15.7 °C 34086.9 hPa Calm   7.7 km/h 97 % 0 mm 0 W/m2
01:20 -15.5 °C -15.8 °C 34086.9 hPa Calm   5.1 km/h 97 % 0 mm 0 W/m2
01:25 -15.5 °C -15.8 °C 34086.9 hPa Calm   5.1 km/h 97 % 0 mm 0 W/m2
01:30 -15.5 °C -15.8 °C 34097 hPa Calm   5.1 km/h 97 % 0 mm 0 W/m2
01:35 -15.5 °C -15.8 °C 34097 hPa ESE 2.6 km/h 5.1 km/h 97 % 0 mm 0 W/m2
01:40 -15.5 °C -15.8 °C 34097 hPa Calm   5.1 km/h 97 % 0 mm 0 W/m2
01:45 -15.6 °C -15.8 °C 34097 hPa Calm   2.6 km/h 97 % 0 mm 0 W/m2
01:50 -15.6 °C -15.8 °C 34086.9 hPa Calm   7.7 km/h 97 % 0 mm 0 W/m2
01:55 -15.6 °C -15.8 °C 34086.9 hPa ENE 5.1 km/h 7.7 km/h 97 % 0 mm 0 W/m2
02:00 -15.6 °C -15.8 °C 34086.9 hPa ENE 2.6 km/h 10.3 km/h 97 % 0 mm 0 W/m2
02:05 -15.6 °C -15.8 °C 34086.9 hPa ENE 2.6 km/h 10.3 km/h 97 % 0 mm 0 W/m2
02:10 -15.6 °C -15.8 °C 34086.9 hPa Calm   12.9 km/h 97 % 0 mm 0 W/m2
02:15 -15.6 °C -15.8 °C 34086.9 hPa Calm   12.9 km/h 97 % 0 mm 0 W/m2
02:25 -15.7 °C -15.9 °C 34086.9 hPa ENE 5.1 km/h 10.3 km/h 97 % 0 mm 0 W/m2
02:30 -15.7 °C -15.9 °C 34086.9 hPa ENE 2.6 km/h 10.3 km/h 97 % 0 mm 0 W/m2
02:35 -15.7 °C -15.9 °C 34086.9 hPa Calm   7.7 km/h 97 % 0 mm 0 W/m2
02:40 -15.7 °C -15.9 °C 34086.9 hPa East 2.6 km/h 12.9 km/h 97 % 0 mm 0 W/m2
02:45 -15.6 °C -15.8 °C 34086.9 hPa East 2.6 km/h 12.9 km/h 97 % 0 mm 0 W/m2
02:50 -15.6 °C -15.8 °C 34086.9 hPa ESE 5.1 km/h 12.9 km/h 97 % 0 mm 0 W/m2
02:55 -15.6 °C -15.7 °C 34086.9 hPa ESE 5.1 km/h 12.9 km/h 98 % 0 mm 0 W/m2
03:00 -15.6 °C -15.7 °C 34086.9 hPa ESE 5.1 km/h 10.3 km/h 98 % 0 mm 0 W/m2
03:05 -15.6 °C -15.8 °C 34086.9 hPa ESE 5.1 km/h 7.7 km/h 97 % 0 mm 0 W/m2
03:10 -15.6 °C -15.8 °C 34086.9 hPa ESE 5.1 km/h 12.9 km/h 97 % 0 mm 0 W/m2
03:15 -15.6 °C -15.8 °C 34086.9 hPa ESE 12.9 km/h 12.9 km/h 97 % 0 mm 0 W/m2
03:20 -15.6 °C -15.8 °C 34086.9 hPa ESE 5.1 km/h 12.9 km/h 97 % 0 mm 0 W/m2
03:25 -15.5 °C -15.7 °C 34086.9 hPa ESE 5.1 km/h 12.9 km/h 98 % 0 mm 0 W/m2
03:30 -15.4 °C -15.6 °C 34097 hPa SE 7.7 km/h 10.3 km/h 98 % 0 mm 0 W/m2
03:35 -15.4 °C -15.6 °C 34086.9 hPa Calm   12.9 km/h 98 % 0 mm 0 W/m2
03:40 -15.4 °C -15.6 °C 34086.9 hPa ESE 5.1 km/h 12.9 km/h 98 % 0 mm 0 W/m2
03:45 -15.4 °C -15.6 °C 34086.9 hPa ESE 2.6 km/h 10.3 km/h 98 % 0 mm 0 W/m2
03:50 -15.4 °C -15.6 °C 34086.9 hPa East 2.6 km/h 10.3 km/h 98 % 0 mm 0 W/m2
03:55 -15.4 °C -15.6 °C 34086.9 hPa Calm   10.3 km/h 98 % 0 mm 0 W/m2
04:00 -15.4 °C -15.6 °C 34086.9 hPa Calm   10.3 km/h 98 % 0 mm 0 W/m2
04:05 -15.4 °C -15.6 °C 34086.9 hPa Calm   7.7 km/h 98 % 0 mm 0 W/m2
04:10 -15.4 °C -15.6 °C 34073.3 hPa East 2.6 km/h 7.7 km/h 98 % 0 mm 0 W/m2
04:20 -15.4 °C -15.6 °C 34073.3 hPa East 5.1 km/h 7.7 km/h 98 % 0 mm 0 W/m2
04:25 -15.4 °C -15.6 °C 34073.3 hPa Calm   7.7 km/h 98 % 0 mm 0 W/m2
04:30 -15.4 °C -15.6 °C 34073.3 hPa Calm   5.1 km/h 98 % 0 mm 0 W/m2
04:35 -15.4 °C -15.6 °C 34073.3 hPa NE 7.7 km/h 12.9 km/h 98 % 0 mm 0 W/m2
04:40 -15.4 °C -15.6 °C 34073.3 hPa Calm   12.9 km/h 98 % 0 mm 0 W/m2
04:45 -15.4 °C -15.6 °C 34073.3 hPa Calm   7.7 km/h 98 % 0 mm 0 W/m2
04:55 -15.4 °C -15.6 °C 34073.3 hPa Calm   12.9 km/h 98 % 0 mm 0 W/m2
05:00 -15.4 °C -15.6 °C 34086.9 hPa ENE 7.7 km/h 12.9 km/h 98 % 0 mm 0 W/m2
05:05 -15.4 °C -15.6 °C 34073.3 hPa Calm   10.3 km/h 98 % 0 mm 0 W/m2
05:10 -15.4 °C -15.6 °C 34073.3 hPa East 2.6 km/h 12.9 km/h 98 % 0 mm 0 W/m2
05:15 -15.4 °C -15.6 °C 34073.3 hPa ENE 7.7 km/h 12.9 km/h 98 % 0 mm 0 W/m2
05:20 -15.3 °C -15.5 °C 34073.3 hPa ENE 10.3 km/h 18.2 km/h 98 % 0 mm 0 W/m2
05:25 -15.3 °C -15.5 °C 34073.3 hPa NE 7.7 km/h 23.3 km/h 98 % 0 mm 0 W/m2
05:30 -15.4 °C -15.6 °C 34073.3 hPa East 15.6 km/h 23.3 km/h 98 % 0 mm 0 W/m2
05:35 -15.4 °C -15.6 °C 34073.3 hPa ENE 12.9 km/h 20.8 km/h 98 % 0 mm 0 W/m2
05:40 -15.4 °C -15.6 °C 34073.3 hPa ENE 12.9 km/h 23.3 km/h 98 % 0 mm 0 W/m2
05:45 -15.4 °C -15.6 °C 34073.3 hPa East 7.7 km/h 23.3 km/h 98 % 0 mm 0 W/m2
05:50 -15.3 °C -15.5 °C 34086.9 hPa NE 2.6 km/h 20.8 km/h 98 % 0 mm 0 W/m2
05:55 -15.4 °C -15.6 °C 34086.9 hPa NNE 10.3 km/h 18.2 km/h 98 % 0 mm 0 W/m2
06:00 -15.4 °C -15.6 °C 34086.9 hPa East 10.3 km/h 12.9 km/h 98 % 0 mm 0 W/m2
06:05 -15.4 °C -15.6 °C 34086.9 hPa ENE 5.1 km/h 23.3 km/h 98 % 0 mm 0 W/m2
06:10 -15.4 °C -15.6 °C 34086.9 hPa ENE 12.9 km/h 23.3 km/h 98 % 0 mm 0 W/m2
06:15 -15.4 °C -15.6 °C 34086.9 hPa NE 15.6 km/h 23.3 km/h 98 % 0 mm 0 W/m2
06:20 -15.5 °C -15.7 °C 34086.9 hPa ENE 12.9 km/h 25.9 km/h 98 % 0 mm 0 W/m2
06:25 -15.5 °C -15.7 °C 34086.9 hPa ENE 7.7 km/h 25.9 km/h 98 % 0 mm 0 W/m2
06:30 -15.5 °C -15.7 °C 34086.9 hPa ENE 7.7 km/h 20.8 km/h 98 % 0 mm 0 W/m2
06:35 -15.4 °C -15.6 °C 34086.9 hPa East 5.1 km/h 20.8 km/h 98 % 0 mm 0 W/m2
06:40 -15.5 °C -15.7 °C 34086.9 hPa East 5.1 km/h 23.3 km/h 98 % 0 mm 0 W/m2
06:45 -15.4 °C -15.6 °C 34086.9 hPa ENE 2.6 km/h 23.3 km/h 98 % 0 mm 0 W/m2
06:50 -15.4 °C -15.6 °C 34086.9 hPa ENE 12.9 km/h 23.3 km/h 98 % 0 mm 0 W/m2
06:55 -15.4 °C -15.6 °C 34097 hPa ENE 5.1 km/h 23.3 km/h 98 % 0 mm 0 W/m2
07:00 -15.4 °C -15.6 °C 34097 hPa Calm   23.3 km/h 98 % 0 mm 0 W/m2
07:05 -15.4 °C -15.6 °C 34097 hPa East 5.1 km/h 12.9 km/h 98 % 7.62 mm 0 W/m2
07:10 -15.3 °C -15.5 °C 34097 hPa East 2.6 km/h 12.9 km/h 98 % 7.62 mm 0 W/m2
07:15 -15.3 °C -15.4 °C 34097 hPa ENE 10.3 km/h 20.8 km/h 98 % 7.62 mm 0 W/m2
07:25 -15.2 °C -15.4 °C 34097 hPa NE 5.1 km/h 23.3 km/h 98 % 7.62 mm 0 W/m2
07:30 -15.2 °C -15.3 °C 34097 hPa ENE 12.9 km/h 23.3 km/h 98 % 7.62 mm 0 W/m2
07:35 -15.2 °C -15.3 °C 34097 hPa ENE 7.7 km/h 25.9 km/h 98 % 7.62 mm 5 W/m2
07:40 -15.1 °C -15.3 °C 34097 hPa ENE 10.3 km/h 25.9 km/h 98 % 7.62 mm 9 W/m2
07:45 -15.1 °C -15.3 °C 34097 hPa ENE 7.7 km/h 23.3 km/h 98 % 7.62 mm 14 W/m2
07:50 -15.1 °C -15.2 °C 34107.2 hPa East 7.7 km/h 23.3 km/h 98 % 7.62 mm 25 W/m2
07:55 -15 °C -15.2 °C 34107.2 hPa Calm   20.8 km/h 98 % 7.62 mm 30 W/m2
08:00 -14.9 °C -15.1 °C 34107.2 hPa East 10.3 km/h 18.2 km/h 98 % 12.7 mm 25 W/m2
08:05 -14.9 °C -15.1 °C 34107.2 hPa East 7.7 km/h 18.2 km/h 98 % 7.62 mm 23 W/m2
08:10 -14.9 °C -15.1 °C 34107.2 hPa East 7.7 km/h 20.8 km/h 98 % 7.62 mm 21 W/m2
08:15 -14.9 °C -15.1 °C 34107.2 hPa ENE 5.1 km/h 20.8 km/h 98 % 7.62 mm 32 W/m2
08:20 -14.8 °C -15 °C 34107.2 hPa East 5.1 km/h 18.2 km/h 98 % 7.62 mm 44 W/m2
08:25 -14.8 °C -14.9 °C 34107.2 hPa ENE 10.3 km/h 20.8 km/h 98 % 7.62 mm 60 W/m2
08:30 -14.7 °C -14.8 °C 34107.2 hPa East 7.7 km/h 20.8 km/h 98 % 7.62 mm 76 W/m2
08:35 -14.7 °C -14.8 °C 34107.2 hPa ENE 2.6 km/h 18.2 km/h 98 % 7.62 mm 95 W/m2
08:40 -14.6 °C -14.8 °C 34107.2 hPa Calm   18.2 km/h 98 % 7.62 mm 130 W/m2
08:45 -14.5 °C -14.6 °C 34107.2 hPa Calm   18.2 km/h 98 % 12.7 mm 179 W/m2
08:50 -14.3 °C -14.4 °C 34107.2 hPa Calm   18.2 km/h 99 % 12.7 mm 148 W/m2
08:55 -14.3 °C -14.4 °C 34120.7 hPa East 7.7 km/h 15.6 km/h 99 % 12.7 mm 118 W/m2
09:00 -14.4 °C -14.6 °C 34107.2 hPa ENE 10.3 km/h 18.2 km/h 98 % 7.62 mm 134 W/m2
09:05 -14.4 °C -14.6 °C 34120.7 hPa ESE 10.3 km/h 20.8 km/h 98 % 7.62 mm 120 W/m2
09:10 -14.3 °C -14.5 °C 34120.7 hPa ENE 5.1 km/h 20.8 km/h 98 % 7.62 mm 137 W/m2
09:15 -14.3 °C -14.4 °C 34120.7 hPa SE 7.7 km/h 23.3 km/h 98 % 7.62 mm 121 W/m2
09:20 -14.3 °C -14.5 °C 34120.7 hPa East 7.7 km/h 23.3 km/h 98 % 7.62 mm 148 W/m2
09:25 -14.2 °C -14.4 °C 34120.7 hPa ENE 12.9 km/h 20.8 km/h 98 % 7.62 mm 153 W/m2
09:30 -14.1 °C -14.3 °C 34120.7 hPa East 12.9 km/h 20.8 km/h 98 % 7.62 mm 137 W/m2
09:35 -14.1 °C -14.2 °C 34120.7 hPa ENE 5.1 km/h 28.5 km/h 98 % 7.62 mm 241 W/m2
09:40 -14 °C -14.2 °C 34120.7 hPa East 5.1 km/h 28.5 km/h 98 % 7.62 mm 436 W/m2
09:45 -13.9 °C -14.1 °C 34120.7 hPa East 15.6 km/h 23.3 km/h 98 % 0 mm 234 W/m2
09:50 -14 °C -14.2 °C 34120.7 hPa East 7.7 km/h 23.3 km/h 98 % 0 mm 220 W/m2
09:55 -14 °C -14.2 °C 34120.7 hPa ENE 5.1 km/h 25.9 km/h 98 % 0 mm 262 W/m2
10:00 -13.9 °C -14.1 °C 34130.9 hPa ENE 5.1 km/h 25.9 km/h 98 % 0 mm 227 W/m2
10:05 -13.8 °C -13.9 °C 34130.9 hPa NE 12.9 km/h 20.8 km/h 98 % 0 mm 220 W/m2
10:10 -13.8 °C -14.1 °C 34130.9 hPa NE 2.6 km/h 23.3 km/h 97 % 0 mm 239 W/m2
10:15 -13.7 °C -13.9 °C 34130.9 hPa ENE 10.3 km/h 23.3 km/h 97 % 0 mm 200 W/m2
10:20 -13.7 °C -13.9 °C 34130.9 hPa NE 2.6 km/h 23.3 km/h 97 % 0 mm 216 W/m2
10:25 -13.8 °C -14.1 °C 34130.9 hPa ENE 12.9 km/h 25.9 km/h 96 % 0 mm 158 W/m2
10:30 -13.8 °C -14.2 °C 34130.9 hPa NE 15.6 km/h 25.9 km/h 96 % 0 mm 162 W/m2
10:40 -13.8 °C -14.1 °C 34130.9 hPa ENE 10.3 km/h 23.3 km/h 96 % 0 mm 185 W/m2
10:45 -13.7 °C -14.1 °C 34130.9 hPa East 12.9 km/h 23.3 km/h 96 % 0 mm 250 W/m2
10:50 -13.6 °C -13.9 °C 34130.9 hPa ESE 5.1 km/h 23.3 km/h 96 % 0 mm 211 W/m2
10:55 -13.6 °C -14 °C 34130.9 hPa East 7.7 km/h 23.3 km/h 95 % 0 mm 250 W/m2
11:00 -13.7 °C -14.1 °C 34130.9 hPa East 18.2 km/h 23.3 km/h 95 % 0 mm 179 W/m2
11:05 -13.6 °C -14 °C 34130.9 hPa NE 10.3 km/h 23.3 km/h 95 % 0 mm 185 W/m2
11:10 -13.5 °C -13.9 °C 34130.9 hPa ENE 10.3 km/h 20.8 km/h 95 % 0 mm 179 W/m2
11:15 -13.5 °C -14 °C 34144.4 hPa ENE 12.9 km/h 20.8 km/h 94 % 0 mm 171 W/m2
11:20 -13.6 °C -14.2 °C 34144.4 hPa East 12.9 km/h 23.3 km/h 93 % 0 mm 156 W/m2
11:25 -13.6 °C -14.2 °C 34144.4 hPa ENE 7.7 km/h 23.3 km/h 93 % 0 mm 127 W/m2
11:30 -13.6 °C -14.1 °C 34144.4 hPa ENE 5.1 km/h 20.8 km/h 93 % 0 mm 155 W/m2
11:35 -13.5 °C -14.1 °C 34144.4 hPa ENE 10.3 km/h 18.2 km/h 93 % 0 mm 181 W/m2
11:40 -13.4 °C -14 °C 34144.4 hPa ENE 5.1 km/h 20.8 km/h 93 % 0 mm 186 W/m2
11:45 -13.2 °C -13.7 °C 34144.4 hPa ENE 18.2 km/h 20.8 km/h 94 % 0 mm 265 W/m2
11:50 -13.2 °C -13.9 °C 34144.4 hPa East 5.1 km/h 23.3 km/h 92 % 0 mm 341 W/m2
11:55 -13.1 °C -13.8 °C 34144.4 hPa ENE 18.2 km/h 23.3 km/h 92 % 0 mm 369 W/m2
12:00 -13 °C -13.8 °C 34144.4 hPa ESE 7.7 km/h 20.8 km/h 90 % 0 mm 343 W/m2
12:05 -12.9 °C -13.9 °C 34144.4 hPa ESE 10.3 km/h 25.9 km/h 89 % 0 mm 417 W/m2
12:10 -12.7 °C -13.7 °C 34144.4 hPa East 7.7 km/h 25.9 km/h 88 % 0 mm 411 W/m2
12:20 -12.4 °C -13.4 °C 34144.4 hPa NE 12.9 km/h 23.3 km/h 89 % 0 mm 533 W/m2
12:25 -12.4 °C -13.6 °C 34144.4 hPa East 7.7 km/h 23.3 km/h 87 % 0 mm 429 W/m2
12:30 -12.2 °C -13.4 °C 34144.4 hPa NE 7.7 km/h 23.3 km/h 86 % 0 mm 487 W/m2
12:35 -12.1 °C -13.5 °C 34144.4 hPa NE 5.1 km/h 28.5 km/h 84 % 0 mm 332 W/m2
12:40 -12.3 °C -13.7 °C 34130.9 hPa ESE 7.7 km/h 28.5 km/h 84 % 0 mm 359 W/m2
12:45 -12.1 °C -13.5 °C 34130.9 hPa Calm   25.9 km/h 84 % 0 mm 784 W/m2
12:50 -11.9 °C -13.4 °C 34130.9 hPa East 15.6 km/h 25.9 km/h 84 % 0 mm 327 W/m2
12:55 -12 °C -13.6 °C 34130.9 hPa NE 15.6 km/h 18.2 km/h 82 % 0 mm 272 W/m2
13:00 -12.1 °C -13.4 °C 34130.9 hPa North 10.3 km/h 20.8 km/h 85 % 0 mm 241 W/m2
13:05 -11.8 °C -13.2 °C 34130.9 hPa North 20.8 km/h 20.8 km/h 84 % 0 mm 754 W/m2
13:10 -12.1 °C -13.7 °C 34130.9 hPa NE 7.7 km/h 20.8 km/h 82 % 0 mm 176 W/m2
13:15 -12.3 °C -13.7 °C 34130.9 hPa NE 12.9 km/h 20.8 km/h 84 % 0 mm 211 W/m2
13:20 -12.4 °C -13.9 °C 34130.9 hPa East 15.6 km/h 23.3 km/h 84 % 0 mm 232 W/m2
13:25 -12.3 °C -13.8 °C 34130.9 hPa ENE 18.2 km/h 28.5 km/h 83 % 0 mm 141 W/m2
13:30 -12.4 °C -14 °C 34130.9 hPa North 18.2 km/h 28.5 km/h 83 % 0 mm 100 W/m2
13:35 -12.6 °C -13.9 °C 34130.9 hPa East 15.6 km/h 25.9 km/h 85 % 0 mm 105 W/m2
13:40 -12.6 °C -14.2 °C 34130.9 hPa Calm   20.8 km/h 83 % 0 mm 93 W/m2
13:45 -12.6 °C -13.9 °C 34130.9 hPa NE 5.1 km/h 18.2 km/h 85 % 0 mm 98 W/m2
13:50 -12.6 °C -13.9 °C 34130.9 hPa NNE 10.3 km/h 18.2 km/h 85 % 0 mm 109 W/m2
13:55 -12.6 °C -14.1 °C 34130.9 hPa North 12.9 km/h 18.2 km/h 84 % 0 mm 125 W/m2
14:00 -12.6 °C -14.1 °C 34130.9 hPa NE 2.6 km/h 15.6 km/h 83 % 0 mm 127 W/m2
14:05 -12.5 °C -14 °C 34130.9 hPa NNE 10.3 km/h 18.2 km/h 83 % 0 mm 114 W/m2
14:10 -12.6 °C -14.1 °C 34130.9 hPa Calm   20.8 km/h 83 % 0 mm 132 W/m2
14:15 -12.4 °C -13.9 °C 34130.9 hPa NNE 2.6 km/h 20.8 km/h 84 % 0 mm 167 W/m2
14:20 -12.3 °C -13.9 °C 34130.9 hPa North 2.6 km/h 15.6 km/h 83 % 0 mm 193 W/m2
14:25 -12.2 °C -13.6 °C 34130.9 hPa NE 5.1 km/h 12.9 km/h 85 % 0 mm 155 W/m2
14:30 -12.4 °C -13.8 °C 34144.4 hPa Calm   12.9 km/h 84 % 12.7 mm 74 W/m2
14:35 -12.7 °C -13.8 °C 34144.4 hPa Calm   12.9 km/h 87 % 12.7 mm 86 W/m2
14:40 -12.7 °C -13.6 °C 34144.4 hPa Calm   7.7 km/h 90 % 12.7 mm 153 W/m2
14:45 -12.7 °C -13.4 °C 34130.9 hPa NNW 2.6 km/h 5.1 km/h 91 % 12.7 mm 139 W/m2
14:50 -12.8 °C -13.7 °C 34144.4 hPa Calm   5.1 km/h 90 % 12.7 mm 95 W/m2
15:00 -12.6 °C -13.3 °C 34130.9 hPa Calm   7.7 km/h 91 % 12.7 mm 290 W/m2
15:05 -12.3 °C -13.1 °C 34130.9 hPa NNE 5.1 km/h 12.9 km/h 91 % 12.7 mm 283 W/m2
15:10 -12.3 °C -13.5 °C 34130.9 hPa Calm   12.9 km/h 87 % 12.7 mm 209 W/m2
15:15 -12.4 °C -13.4 °C 34130.9 hPa East 7.7 km/h 18.2 km/h 88 % 12.7 mm 172 W/m2
15:20 -12.4 °C -13.7 °C 34130.9 hPa Calm   18.2 km/h 86 % 12.7 mm 169 W/m2
15:25 -12.5 °C -13.7 °C 34144.4 hPa NE 5.1 km/h 12.9 km/h 87 % 12.7 mm 160 W/m2
15:30 -12.5 °C -13.7 °C 34144.4 hPa Calm   10.3 km/h 87 % 7.62 mm 104 W/m2
15:35 -12.6 °C -13.9 °C 34144.4 hPa SSW 10.3 km/h 15.6 km/h 85 % 0 mm 63 W/m2
15:40 -12.9 °C -14.3 °C 34154.6 hPa SSE 28.5 km/h 33.6 km/h 84 % 0 mm 35 W/m2
15:45 -13.5 °C -14.8 °C 34154.6 hPa SSW 20.8 km/h 46.7 km/h 85 % 0 mm 56 W/m2
15:55 -13.8 °C -15 °C 34154.6 hPa SSW 25.9 km/h 36.2 km/h 87 % 0 mm 30 W/m2
16:00 -13.9 °C -14.9 °C 34154.6 hPa South 10.3 km/h 33.6 km/h 88 % 0 mm 14 W/m2
16:05 -13.8 °C -14.8 °C 34164.7 hPa South 10.3 km/h 25.9 km/h 89 % 0 mm 11 W/m2
16:10 -13.8 °C -14.6 °C 34164.7 hPa South 5.1 km/h 25.9 km/h 91 % 7.62 mm 12 W/m2
16:15 -13.9 °C -14.7 °C 34178.3 hPa SE 2.6 km/h 31.1 km/h 91 % 7.62 mm 19 W/m2
16:20 -14 °C -14.7 °C 34178.3 hPa SE 7.7 km/h 31.1 km/h 92 % 12.7 mm 26 W/m2
16:25 -14.1 °C -14.7 °C 34178.3 hPa Calm   10.3 km/h 92 % 12.7 mm 32 W/m2
16:30 -14.1 °C -14.6 °C 34178.3 hPa Calm   10.3 km/h 93 % 20.32 mm 49 W/m2
16:35 -14.1 °C -14.6 °C 34178.3 hPa Calm   5.1 km/h 93 % 25.4 mm 76 W/m2
16:40 -14 °C -14.5 °C 34178.3 hPa Calm   5.1 km/h 94 % 25.4 mm 77 W/m2
16:45 -13.9 °C -14.4 °C 34178.3 hPa South 7.7 km/h 7.7 km/h 94 % 33.02 mm 74 W/m2
16:50 -13.9 °C -14.4 °C 34164.7 hPa WSW 5.1 km/h 12.9 km/h 94 % 33.02 mm 83 W/m2
16:55 -13.9 °C -14.4 °C 34164.7 hPa SSW 2.6 km/h 18.2 km/h 94 % 33.02 mm 84 W/m2
17:00 -14 °C -14.5 °C 34164.7 hPa SW 10.3 km/h 18.2 km/h 94 % 33.02 mm 81 W/m2
17:05 -14 °C -14.5 °C 34178.3 hPa SSW 7.7 km/h 10.3 km/h 94 % 33.02 mm 76 W/m2
17:10 -13.9 °C -14.4 °C 34178.3 hPa South 5.1 km/h 10.3 km/h 95 % 25.4 mm 58 W/m2
17:15 -13.9 °C -14.4 °C 34178.3 hPa South 5.1 km/h 10.3 km/h 94 % 33.02 mm 47 W/m2
17:20 -13.9 °C -14.4 °C 34178.3 hPa South 5.1 km/h 10.3 km/h 94 % 25.4 mm 44 W/m2
17:25 -13.9 °C -14.4 °C 34178.3 hPa SSE 7.7 km/h 12.9 km/h 94 % 25.4 mm 42 W/m2
17:30 -13.9 °C -14.4 °C 34188.4 hPa Calm   12.9 km/h 94 % 25.4 mm 32 W/m2
17:35 -13.8 °C -14.3 °C 34188.4 hPa Calm   12.9 km/h 95 % 20.32 mm 23 W/m2
17:40 -13.9 °C -14.3 °C 34188.4 hPa Calm   10.3 km/h 95 % 25.4 mm 25 W/m2
17:45 -13.9 °C -14.3 °C 34188.4 hPa SSE 2.6 km/h 10.3 km/h 95 % 25.4 mm 28 W/m2
17:50 -13.9 °C -14.4 °C 34188.4 hPa ESE 5.1 km/h 18.2 km/h 95 % 33.02 mm 35 W/m2
17:55 -14.1 °C -14.4 °C 34188.4 hPa ESE 2.6 km/h 18.2 km/h 95 % 33.02 mm 39 W/m2
18:00 -14.1 °C -14.6 °C 34188.4 hPa Calm   15.6 km/h 95 % 38.1 mm 42 W/m2
18:05 -14.1 °C -14.5 °C 34188.4 hPa ESE 2.6 km/h 12.9 km/h 95 % 38.1 mm 39 W/m2
18:10 -14.2 °C -14.6 °C 34188.4 hPa Calm   7.7 km/h 95 % 38.1 mm 35 W/m2
18:15 -14.2 °C -14.7 °C 34188.4 hPa Calm   5.1 km/h 95 % 33.02 mm 28 W/m2
18:20 -14.2 °C -14.6 °C 34188.4 hPa Calm   2.6 km/h 95 % 33.02 mm 26 W/m2
18:25 -14.2 °C -14.6 °C 34188.4 hPa Calm     95 % 33.02 mm 35 W/m2
18:30 -14.1 °C -14.4 °C 34198.6 hPa Calm   5.1 km/h 96 % 33.02 mm 39 W/m2
18:35 -14.2 °C -14.5 °C 34198.6 hPa Calm   5.1 km/h 96 % 33.02 mm 37 W/m2
18:40 -14.2 °C -14.5 °C 34198.6 hPa Calm   5.1 km/h 96 % 25.4 mm 32 W/m2
18:45 -14.2 °C -14.5 °C 34198.6 hPa Calm   5.1 km/h 96 % 20.32 mm 25 W/m2
18:50 -14.2 °C -14.5 °C 34198.6 hPa Calm   2.6 km/h 96 % 12.7 mm 19 W/m2
18:55 -14.2 °C -14.5 °C 34198.6 hPa Calm   5.1 km/h 96 % 12.7 mm 16 W/m2
19:00 -14.2 °C -14.6 °C 34198.6 hPa Calm   5.1 km/h 96 % 12.7 mm 12 W/m2
19:05 -14.3 °C -14.6 °C 34212.1 hPa ESE 2.6 km/h 5.1 km/h 96 % 12.7 mm 11 W/m2
19:10 -14.3 °C -14.7 °C 34212.1 hPa ESE 2.6 km/h 5.1 km/h 96 % 12.7 mm 9 W/m2
19:15 -14.4 °C -14.7 °C 34212.1 hPa Calm   7.7 km/h 96 % 7.62 mm 7 W/m2
19:20 -14.4 °C -14.7 °C 34212.1 hPa ENE 2.6 km/h 7.7 km/h 96 % 7.62 mm 5 W/m2
19:25 -14.5 °C -14.8 °C 34212.1 hPa ENE 2.6 km/h 5.1 km/h 96 % 7.62 mm 0 W/m2
19:35 -14.6 °C -14.9 °C 34222.3 hPa Calm   7.7 km/h 96 % 0 mm 0 W/m2
19:40 -14.6 °C -14.9 °C 34222.3 hPa Calm   7.7 km/h 96 % 0 mm 0 W/m2
19:50 -14.7 °C -15 °C 34235.8 hPa East 5.1 km/h 7.7 km/h 96 % 0 mm 0 W/m2
19:55 -14.7 °C -15.1 °C 34235.8 hPa Calm   12.9 km/h 96 % 0 mm 0 W/m2
20:00 -14.8 °C -15.2 °C 34235.8 hPa Calm   12.9 km/h 96 % 0 mm 0 W/m2
20:05 -14.9 °C -15.3 °C 34235.8 hPa East 2.6 km/h 2.6 km/h 96 % 0 mm 0 W/m2
20:10 -14.9 °C -15.3 °C 34235.8 hPa Calm   2.6 km/h 96 % 0 mm 0 W/m2
20:15 -14.9 °C -15.2 °C 34235.8 hPa Calm   5.1 km/h 96 % 0 mm 0 W/m2
20:20 -15 °C -15.3 °C 34246 hPa Calm   5.1 km/h 96 % 0 mm 0 W/m2
20:25 -15.1 °C -15.4 °C 34246 hPa Calm   2.6 km/h 96 % 0 mm 0 W/m2
20:30 -15.1 °C -15.3 °C 34246 hPa Calm   7.7 km/h 97 % 0 mm 0 W/m2
20:35 -15 °C -15.3 °C 34256.2 hPa East 2.6 km/h 7.7 km/h 96 % 0 mm 0 W/m2
20:40 -15.1 °C -15.3 °C 34256.2 hPa Calm   7.7 km/h 96 % 0 mm 0 W/m2
20:45 -15.1 °C -15.3 °C 34256.2 hPa Calm   7.7 km/h 96 % 0 mm 0 W/m2
20:50 -15 °C -15.2 °C 34256.2 hPa ESE 2.6 km/h 7.7 km/h 97 % 0 mm 0 W/m2
20:55 -15 °C -15.2 °C 34269.7 hPa ESE 2.6 km/h 12.9 km/h 97 % 0 mm 0 W/m2
21:00 -15 °C -15.2 °C 34256.2 hPa ESE 7.7 km/h 15.6 km/h 97 % 0 mm 0 W/m2
21:05 -14.9 °C -15.2 °C 34269.7 hPa East 2.6 km/h 15.6 km/h 97 % 0 mm 0 W/m2
21:10 -14.9 °C -15.1 °C 34269.7 hPa Calm   12.9 km/h 97 % 0 mm 0 W/m2
21:15 -14.8 °C -15.1 °C 34269.7 hPa East 2.6 km/h 10.3 km/h 97 % 0 mm 0 W/m2
21:20 -14.8 °C -15 °C 34269.7 hPa East 5.1 km/h 7.7 km/h 97 % 0 mm 0 W/m2
21:25 -14.8 °C -15 °C 34279.9 hPa East 2.6 km/h 7.7 km/h 97 % 0 mm 0 W/m2
21:30 -14.8 °C -15 °C 34279.9 hPa East 2.6 km/h 10.3 km/h 97 % 0 mm 0 W/m2
21:35 -14.8 °C -15 °C 34279.9 hPa East 5.1 km/h 10.3 km/h 97 % 0 mm 0 W/m2
21:40 -14.8 °C -15 °C 34279.9 hPa East 2.6 km/h 10.3 km/h 97 % 0 mm 0 W/m2
21:45 -14.7 °C -14.9 °C 34293.4 hPa Calm   12.9 km/h 97 % 0 mm 0 W/m2
21:50 -14.7 °C -14.9 °C 34293.4 hPa Calm   12.9 km/h 97 % 0 mm 0 W/m2
21:55 -14.7 °C -14.9 °C 34293.4 hPa East 7.7 km/h 12.9 km/h 97 % 0 mm 0 W/m2
22:10 -14.6 °C -14.8 °C 34303.6 hPa East 5.1 km/h 12.9 km/h 97 % 0 mm 0 W/m2
22:15 -14.6 °C -14.8 °C 34303.6 hPa East 7.7 km/h 12.9 km/h 97 % 0 mm 0 W/m2
22:20 -14.6 °C -14.8 °C 34303.6 hPa Calm   7.7 km/h 97 % 0 mm 0 W/m2
22:25 -14.6 °C -14.8 °C 34303.6 hPa East 2.6 km/h 7.7 km/h 97 % 0 mm 0 W/m2
22:30 -14.6 °C -14.8 °C 34303.6 hPa East 2.6 km/h 7.7 km/h 97 % 0 mm 0 W/m2
22:35 -14.6 °C -14.8 °C 34313.7 hPa ESE 5.1 km/h 12.9 km/h 97 % 0 mm 0 W/m2
22:40 -14.6 °C -14.8 °C 34313.7 hPa ESE 7.7 km/h 12.9 km/h 97 % 0 mm 0 W/m2
22:45 -14.5 °C -14.7 °C 34313.7 hPa ESE 12.9 km/h 20.8 km/h 97 % 0 mm 0 W/m2
22:50 -14.4 °C -14.7 °C 34313.7 hPa ESE 12.9 km/h 20.8 km/h 97 % 0 mm 0 W/m2
22:55 -14.4 °C -14.7 °C 34327.3 hPa ESE 10.3 km/h 18.2 km/h 97 % 0 mm 0 W/m2
23:00 -14.4 °C -14.7 °C 34327.3 hPa SE 7.7 km/h 18.2 km/h 97 % 0 mm 0 W/m2
23:05 -14.4 °C -14.7 °C 34327.3 hPa East 7.7 km/h 20.8 km/h 97 % 0 mm 0 W/m2
23:10 -14.4 °C -14.7 °C 34327.3 hPa ESE 7.7 km/h 20.8 km/h 97 % 0 mm 0 W/m2
23:15 -14.4 °C -14.7 °C 34337.4 hPa ESE 2.6 km/h 20.8 km/h 97 % 0 mm 0 W/m2
23:20 -14.4 °C -14.7 °C 34337.4 hPa SE 12.9 km/h 20.8 km/h 97 % 0 mm 0 W/m2
23:25 -14.5 °C -14.7 °C 34337.4 hPa ESE 10.3 km/h 20.8 km/h 97 % 0 mm 0 W/m2
23:30 -14.6 °C -14.8 °C 34337.4 hPa ESE 12.9 km/h 20.8 km/h 97 % 0 mm 0 W/m2
23:35 -14.6 °C -14.8 °C 34337.4 hPa SE 12.9 km/h 23.3 km/h 97 % 0 mm 0 W/m2
23:40 -14.6 °C -14.9 °C 34337.4 hPa ESE 12.9 km/h 23.3 km/h 97 % 0 mm 0 W/m2
23:45 -14.7 °C -14.9 °C 34337.4 hPa ESE 7.7 km/h 23.3 km/h 97 % 0 mm 0 W/m2
23:50 -14.7 °C -14.9 °C 34347.6 hPa ESE 7.7 km/h 20.8 km/h 97 % 0 mm 0 W/m2
23:55 -14.8 °C -15 °C 34347.6 hPa East 5.1 km/h 18.2 km/h 97 % 0 mm 0 W/m2
Avec l'autorisation de Weather Underground - 1.75 mb